Regional Weather Roundup
Issued by NWS Little Rock, AR

Home | Current Version | Previous Version | Text Only | Print | Product List | Glossary Off
Versions: 1 2 3 4 5 6 7 8 9 10 11 12 13 14 15 16 17 18 19 20 21 22 23 24 25 26 27 28 29 30 31 32 33 34 35 36 37 38 39 40 41 42 43 44 45 46 47 48 49 50

000
ASUS44 KLZK 121105
RWRLZK

WEATHER ROUNDUP FOR ARKANSAS
NATIONAL WEATHER SERVICE LITTLE ROCK AR
500 AM CST FRI FEB 12 2016

NOTE: "FAIR" INDICATES FEW OR NO CLOUDS BELOW 12,000 FEET WITH NO
SIGNIFICANT WEATHER AND/OR OBSTRUCTIONS TO VISIBILITY.

ARZ001-003-010-029-121200-
NORTHWEST ARKANSAS

CITY           SKY/WX    TMP DP  RH WIND       PRES   REMARKS
FAYETTEVILLE   CLEAR     28  25  88 S6        30.20R WCI  22
FORT SMITH     CLEAR     35  24  64 E3        30.22R
HARRISON       CLEAR     37  25  61 NW5       30.15R
BENTONVILLE    CLEAR     30  21  69 S3        30.19R
ROGERS         CLEAR     33  24  69 SW7       30.19R WCI  27
SILOAM SPGS    CLEAR     30  19  64 CALM      30.20R
HIGHFILL       CLEAR     31  25  78 SW6       30.18R WCI  25
$$

ARZ004-005-016-121200-
NORTH CENTRAL ARKANSAS

CITY           SKY/WX    TMP DP  RH WIND       PRES   REMARKS
BATESVILLE     CLEAR     28  21  74 CALM      30.19S
FLIPPIN        CLEAR     30  18  59 CALM      30.15R
MTN HOME       CLEAR     28  22  78 CALM      30.16R
$$

ARZ040-041-121200-
WEST CENTRAL ARKANSAS

CITY           SKY/WX    TMP DP  RH WIND       PRES   REMARKS
MENA           CLEAR     32  30  93 CALM      30.19S
MOUNT IDA      CLEAR     29  26  89 CALM      30.17F
$$

ARZ009-017-025-026-028-121200-
NORTHEAST ARKANSAS

CITY           SKY/WX    TMP DP  RH WIND       PRES   REMARKS
JONESBORO      PTCLDY    30  26  85 N5        30.19R WCI  25
NEWPORT        CLEAR     29  25  85 NW3       30.20R
WALNUT RIDGE   CLOUDY    30  23  74 NE7       30.22R WCI  23
BLYTHEVILLE    PTCLDY    33  26  75 NE6       30.20R WCI  28
$$

ARZ022-023-033-042-044-121200-
CENTRAL ARKANSAS

CITY           SKY/WX    TMP DP  RH WIND       PRES   REMARKS
LITTLE ROCK    CLEAR     33  25  72 N6        30.21S WCI  28
N LITTLE ROCK    N/A     34  27  75 NW5       30.21S WCI  30
JACKSONVILLE   CLEAR     30  24  77 W1        30.18F
SEARCY         CLEAR     30  25  80 W5        30.21F WCI  25
HOT SPRINGS    CLEAR     31  25  78 CALM      30.20F
RUSSELLVILLE   CLEAR     27  24  89 CALM      30.21R
CLINTON        FAIR      27  25  93 CALM      30.21S
$$

ARZ036-121200-
EAST ARKANSAS

CITY           SKY/WX    TMP DP  RH WIND       PRES   REMARKS
WEST MEMPHIS   CLEAR     29  28  96 CALM      30.16S
$$

ARZ050-053-066-070-073-121200-
SOUTHWEST ARKANSAS

CITY           SKY/WX    TMP DP  RH WIND       PRES   REMARKS
ARKADELPHIA    FAIR      32  29  89 CALM      30.22S
CAMDEN         CLEAR     32  27  80 CALM      30.21R
TEXARKANA      CLEAR     36  28  73 NE6       30.20R
EL DORADO      CLEAR     36  28  73 N3        30.18S
DE QUEEN       CLEAR     34  29  82 CALM      30.20S
$$

ARZ056-057-069-121200-
SOUTHEAST ARKANSAS

CITY           SKY/WX    TMP DP  RH WIND       PRES   REMARKS
PINE BLUFF     CLEAR     32  27  81 N7        30.20R WCI  26
STUTTGART      CLEAR     32  25  74 N8        30.20R WCI  25
MONTICELLO     CLEAR     37  28  70 N3        30.18R

$$





USA.gov is the U.S. government's official web portal to all federal, state and local government web resources and services.